Regional Weather Roundup
Issued by NWS Newport/Morehead, NC

Current Version | Previous Version | Text Only | Print | Product List | Glossary Off
Versions: 1 2 3 4 5 6 7 8 9 10 11 12 13 14 15 16 17 18 19 20 21 22 23 24 25 26 27 28 29 30 31 32 33 34 35 36 37 38 39 40 41 42 43 44 45 46 47 48 49 50

000
ASUS42 KMHX 011024
RWRMHX
WEATHER ROUNDUP FOR EASTERN NORTH CAROLINA
NATIONAL WEATHER SERVICE NEWPORT/MOREHEAD CITY NC
600 AM EDT WED APR 01 2015

NOTE: "FAIR" INDICATES FEW OR NO CLOUDS BELOW 12,000 FEET
WITH NO SIGNIFICANT WEATHER AND/OR OBSTRUCTIONS TO VISIBILITY

NCZ015>017-031-032-045>047-102-103-011100-
NORTH COAST

CITY           SKY/WX    TMP DP  RH WIND       PRES   REMARKS
EDENTON        CLEAR     45  38  77 NE12G17   29.98R
ELIZABETH CITY CLEAR     44  36  73 N16       29.97R
KITTY HAWK     SUNNY     43  38  81 N10G18    29.95R
MANTEO         PTCLDY    43  38  84 NE22      29.97R

$$

NCZ045>047-081-094-103-104-011100-
CENTRAL COAST

CITY           SKY/WX    TMP DP  RH WIND       PRES   REMARKS
FRISCO         FAIR      48  38  68 NE15G30   29.93R
SWANQUARTER      N/A     50 N/A N/A NE10G20   29.91R

$$

NCZ095-097-098-100-101-011100-
SOUTHERN COAST

CITY           SKY/WX    TMP DP  RH WIND       PRES   REMARKS
BEAUFORT       CLEAR     53  45  74 NE12G20   29.92R
CEDAR ISLAND     N/A     54 N/A N/A N17G26    29.97R
JACKSONVILLE   CLEAR     56  46  69 NE13      29.90R
PINEY ISLAND   SUNNY    N/A N/A N/A NE14      29.91R
WILMINGTON     CLEAR     57  53  86 N6        29.88R


$$

NCZ011>013-027>030-043-044-078>080-089-090>093-098-011100-
COASTAL PLAIN

CITY           SKY/WX    TMP DP  RH WIND       PRES   REMARKS
AHOSKIE        CLEAR     47  36  65 N9        29.98R
CLINTON        CLEAR     55  43  63 NE9       29.92R
ELIZABETHTOWN  CLEAR     56  49  78 N3        29.90R
GOLDSBORO      CLEAR     53  50  89 NE5       29.91R
GREENVILLE     CLEAR     50  43  76 NE7       29.97R
HAVELOCK       CLEAR     54  42  64 NE17      29.93R
KENANSVILLE    CLEAR     53  42  66 CALM      29.94R
KINSTON        CLEAR     51  42  71 NE7       29.94R
NEW BERN       CLEAR     52  41  66 NE7       29.94R
RICHLANDS      CLEAR     52  43  71 NE12      29.93R
ROCKY MOUNT    CLEAR     50  40  68 NE8       29.96R
WASHINGTON     CLEAR     50  40  70 NE8       29.95R
WHITEVILLE     PTCLDY    57  52  84 CALM      29.89R

$$

AMZ130-135-150-152-154-156-158-170-250-252-270-ANZ085-086-088-633-658-670-011100-
MARINE OBSERVATIONS

STATION/POSITION TIME  TEMP    WIND        PRES    WAVE   SWELL
                       AIR SEA DIR/SP/G            HT/PER HT/PER
                 (UTC) (F)     (DEG/KT/KT) (MB)    (FT/S) (FT/S)
CHESAPEAKE LIGHT 1000   42     360/ 19/ 20 1015.8
64 E VA BEACH    0950   44 49  360/ 23/ 29 1013.1    6/ 5
DUCK             0900   44 42   10/ 16/ 20 1012.5
2 E DUCK         0911      42                N/A     3/ 4
10 NE DUCK       NOT AVBL
OREGON INLET     0900   45 54  350/ 15/ 24 1012.9
HATTERAS CG      0900   54 58   20/ 19/ 23 1012.2
CAPE LOOKOUT     1000   55      20/ 17/ 20 1012.6
BEAUFORT LAB     0900   59 54   20/ 14/ 20 1010.5
27 SE WRIGHTSVLE 1000   60 64  300/ 14/ 17 1013.0
5 SE WRIGHTSVLE  1000   60 56  330/ 10/ 12 1011.4
225 S CAPE HAT   0950   69 68  230/ 21/ 31 1013.5    7/ 8
41 SE CHARLESTON 0950   68 68  260/ 21/ 25 1012.3    5/ 6   2/12

$$


USA.gov is the U.S. government's official web portal to all federal, state and local government web resources and services.